Location: ???????????
(44.4062°N, 135.3991°E)
Time: 00:49:01
(UTC+00:00)

Cosmos 2082 Rocket - Pass Details

Date: 19 May 2025
Orbit: 832 x 853 km, 71.0° (Epoch: 16 June)

Event Time Altitude Azimuth Distance (km) Brightness Sun altitude
Exits shadow 14:54:55 - 260° (W) 2,579 4.6 -25.7°
Reaches altitude 10° 14:55:25 10° 263° (W) 2,441 4.5 -25.7°
Maximum altitude 14:59:38 21° 312° (NW) 1,777 4.3 -25.7°
Drops below altitude 10° 15:03:53 10° 1° (N) 2,456 5.7 -25.6°
Sets 15:06:56 0° 17° (NNE) 3,398 6.6 -25.6°
